Wetbulb
53.42 47.49 50.46 47.33 38.67 35.07 31.82 37.40 39.36 41.78 41.07 43.49 45.51 45.43 43.35 41.94 43.79 43.67 48.52 54.76 55.43 55.42 56.12 57.44 60.63 60.87 60.89 61.04 61.33 61.45 61.82 62.04 62.57 63.10 63.34 63.84 64.26 64.95 66.43 67.37 68.53 69.60 71.37 72.27 71.99 71.99 71.72 72.63 72.52
49.04 49.97 48.39 43.08 33.41 29.71 31.80 37.20 39.38 41.24 43.54 44.09 45.90 44.54 42.50 39.45 46.12 46.92 47.58 52.87 54.24 53.94 54.26 55.19 59.36 59.62 59.76 59.64 59.81 59.85 60.04 60.20 60.64 60.72 60.74 60.89 61.52 62.04 63.23 64.41 65.58 67.17 69.02 70.75 71.71 71.29 71.70 71.86 72.28
49.22 48.95 43.10 38.01 33.15 29.66 31.64 35.79 40.94 43.05 44.68 43.60 42.26 44.38 41.65 40.96 44.91 47.35 49.69 51.35 51.99 51.37 52.68 55.31 58.22 58.44 58.37 58.30 58.43 58.27 58.31 58.24 58.48 58.65 58.74 58.77 58.83 59.02 59.85 60.73 62.65 63.93 65.98 67.88 69.18 70.03 70.94 71.22 71.78
44.52 44.15 40.99 34.79 32.88 36.82 36.27 36.05 39.90 41.51 42.72 43.73 42.17 39.81 40.16 43.65 47.61 47.82 49.78 49.88 48.89 49.32 50.67 54.34 56.93 57.20 57.06 56.71 56.79 56.83 56.93 57.12 57.06 57.12 57.58 57.51 57.33 57.22 57.57 58.07 59.15 60.43 62.20 64.53 66.01 67.15 67.66 68.50 70.45
42.78 40.08 33.63 30.35 32.40 37.31 38.24 39.98 38.97 37.96 39.55 41.16 42.90 40.46 39.14 43.23 47.43 48.38 47.53 47.85 46.41 46.31 47.61 49.80 54.78 55.30 55.30 55.26 55.34 55.23 55.35 55.32 55.33 55.22 55.52 55.60 55.71 55.95 56.33 56.39 56.95 58.05 59.06 60.53 62.29 63.25 64.33 65.84 67.64
37.37 36.89 30.42 28.69 32.44 37.40 38.28 37.57 38.32 38.24 37.82 39.13 39.79 40.09 38.51 44.52 45.94 45.48 45.78 44.27 45.50 44.76 45.95 47.01 51.38 52.12 52.41 52.52 52.76 52.96 53.25 53.47 53.54 53.65 54.02 54.09 54.33 54.50 55.08 55.02 55.42 56.07 56.99 57.80 58.89 59.62 60.32 62.55 65.22
35.70 34.05 29.52 30.56 32.73 35.69 37.28 39.38 36.12 36.15 36.71 37.46 40.65 38.04 37.12 41.12 44.53 45.16 44.08 43.11 43.55 44.22 43.97 43.95 44.72 48.46 51.35 50.05 50.33 50.88 51.29 51.82 52.10 52.16 52.18 52.20 51.84 52.31 52.41 52.36 53.30 55.02 55.68 56.15 56.55 57.07 58.19 59.06 60.86
37.21 35.23 31.13 30.51 32.46 34.38 37.28 37.67 38.76 37.34 36.55 40.77 41.13 37.18 35.31 40.90 45.00 44.63 43.14 41.90 41.95 43.00 43.28 42.55 42.48 43.07 43.55 43.51 48.78 49.20 49.74 50.37 50.29 50.05 49.74 49.38 49.13 49.87 50.04 50.49 52.04 53.85 54.61 55.02 55.39 55.80 56.44 57.67 58.22
38.64 31.17 29.04 32.28 33.51 33.85 37.67 36.01 38.42 39.50 37.68 38.32 40.03 39.02 40.39 43.91 44.56 42.47 40.15 40.32 40.51 42.66 41.60 41.27 41.40 41.63 41.73 42.58 45.74 46.62 48.48 48.53 48.29 47.21 47.99 45.77 44.06 44.74 46.31 49.41 50.84 52.03 52.43 53.46 54.69 55.53 55.31 55.42 57.02
34.42 29.51 33.19 35.90 34.05 33.40 36.78 36.08 37.53 36.01 37.12 36.16 36.84 39.81 42.99 43.86 42.24 40.81 39.86 39.14 39.15 39.32 39.84 40.61 40.20 40.56 41.09 44.46 41.72 40.94 43.18 41.57 42.09 41.94 41.97 43.45 42.60 43.76 46.17 46.73 49.37 50.08 50.50 51.29 52.21 52.59 53.03 52.36 50.67
35.84 32.08 36.94 37.17 38.14 37.47 36.71 36.81 37.17 34.54 35.35 37.13 36.92 38.96 41.43 40.62 40.75 40.46 40.17 39.83 39.64 40.02 40.02 39.89 39.98 39.67 39.32 39.40 39.67 39.28 39.62 39.24 40.40 40.00 41.12 41.41 41.56 41.22 41.97 42.22 43.14 43.97 47.64 45.70 46.70 47.19 48.21 48.31 48.90
33.97 37.78 37.90 39.84 39.13 37.78 35.56 37.04 35.61 35.55 37.25 39.91 38.06 40.40 40.49 39.93 40.64 40.57 39.97 40.84 40.62 39.88 39.15 39.22 39.25 39.19 38.29 38.09 38.19 38.12 38.57 38.57 38.32 39.26 40.77 39.62 38.81 39.13 40.04 40.65 41.33 42.40 44.13 43.80 44.33 44.96 46.01 46.62 47.28
34.99 36.84 39.83 39.43 38.98 37.57 38.00 36.03 35.10 36.42 38.69 40.01 40.07 41.09 40.58 40.22 39.88 40.33 41.33 42.05 41.62 39.48 38.43 38.00 38.20 37.64 38.07 37.63 37.00 37.15 37.03 37.53 37.49 38.43 40.01 39.55 38.35 38.26 39.26 39.45 40.28 40.81 42.07 42.92 43.06 43.64 44.24 44.70 45.96
37.30 37.12 36.93 38.11 38.06 37.66 36.46 34.98 34.92 37.32 38.02 37.68 38.68 38.27 39.18 39.56 40.34 39.94 40.39 40.92 41.31 40.20 38.33 38.32 38.23 37.30 37.69 36.07 36.06 35.82 36.27 36.62 37.22 37.62 38.41 39.71 39.26 37.99 38.14 38.47 39.70 40.12 41.29 42.11 42.21 42.31 42.80 43.61 45.01
37.75 33.02 35.51 36.72 37.23 35.93 35.82 33.50 33.00 38.16 38.05 37.37 37.15 37.65 38.13 39.53 40.22 39.67 41.08 40.32 41.24 39.72 38.95 37.99 37.62 37.61 36.23 35.59 35.46 35.44 35.90 37.17 36.24 37.07 38.18 38.98 39.78 37.80 37.37 37.87 38.21 38.89 40.34 41.02 41.34 42.15 43.26 43.35 44.49
33.38 31.42 28.17 36.35 36.49 35.11 34.29 28.12 36.64 36.84 35.91 35.49 35.84 34.94 37.14 38.34 39.90 39.35 40.29 40.53 39.92 38.57 37.74 38.30 39.80 37.09 36.07 35.28 34.94 35.49 35.64 35.18 35.51 36.32 36.65 38.01 38.94 38.77 36.86 36.70 36.85 38.54 39.73 40.42 40.67 41.23 40.98 41.01 41.78
30.19 25.42 28.99 32.96 36.55 34.40 32.14 28.49 36.48 37.93 36.98 36.32 36.40 36.88 37.53 37.14 36.73 38.26 38.73 37.94 37.83 37.75 35.94 35.25 36.02 35.77 35.64 35.27 35.21 34.91 35.30 34.70 35.05 34.98 35.53 36.57 37.84 38.02 36.28 36.52 37.17 38.50 39.07 39.22 39.51 40.17 40.51 39.98 40.69
26.88 26.46 29.42 28.16 33.21 32.46 30.56 29.36 33.79 37.21 36.77 35.22 34.69 34.53 33.20 32.79 34.91 37.05 36.74 37.08 35.92 35.04 35.17 35.05 35.23 34.42 34.49 34.04 33.81 33.56 33.63 33.48 33.48 33.41 34.90 36.07 36.21 37.08 36.30 36.03 36.60 38.28 37.33 37.11 37.40 37.91 39.97 40.00 40.87
30.65 26.56 25.63 29.86 33.91 30.38 29.31 29.15 32.69 35.78 34.35 32.81 30.71 29.76 30.07 30.83 32.21 33.78 34.65 33.85 33.32 32.78 33.03 33.32 33.05 32.77 32.05 30.42 29.31 29.51 29.06 30.45 31.38 32.74 34.51 35.08 35.74 36.77 35.62 35.14 35.85 36.22 35.31 35.05 36.10 36.96 38.08 38.37 39.69
29.94 25.37 25.82 30.99 33.17 29.69 28.31 28.91 33.00 32.94 30.66 30.49 30.20 29.76 29.35 29.15 30.16 32.00 32.28 32.31 32.21 31.73 31.92 32.06 32.70 31.85 31.26 30.60 29.65 29.26 28.78 29.84 30.83 32.39 33.41 34.70 34.89 35.64 35.19 34.40 34.39 34.85 34.41 34.48 36.10 37.08 37.28 38.77 40.26
28.27 26.27 26.28 26.13 28.60 29.56 26.90 24.33 27.84 30.67 31.65 32.30 31.37 30.80 30.23 28.82 28.28 28.21 30.05 29.20 29.66 29.63 29.83 30.84 30.69 30.50 30.43 30.21 29.80 29.61 29.93 29.96 29.82 30.71 31.10 32.55 33.73 34.24 34.72 34.03 33.34 33.19 34.00 34.89 35.79 36.50 37.43 36.69 38.62
27.02 30.27 28.76 26.67 21.50 20.02 25.96 15.56 25.32 28.12 28.64 29.76 29.77 28.73 28.31 28.08 28.83 29.79 30.00 29.10 28.69 27.77 28.59 29.71 30.28 29.64 30.53 29.72 28.02 26.80 26.47 26.24 27.81 28.66 30.02 30.92 32.58 32.80 33.66 33.29 32.40 32.43 33.94 33.77 35.29 36.22 35.86 36.56 34.39
27.33 30.70 27.32 25.90 21.90 17.99 21.82 13.63 22.76 27.24 24.85 25.70 26.65 28.12 27.58 27.11 27.95 27.61 27.93 28.61 27.42 28.00 27.67 28.07 28.62 28.81 29.21 28.53 28.38 26.99 25.84 26.69 27.74 28.25 28.63 29.17 30.15 31.52 31.81 31.71 31.03 32.23 33.50 33.63 33.42 33.11 33.00 34.68 34.44
32.02 28.36 27.54 24.95 25.69 18.97 18.99 18.59 20.35 20.27 23.66 26.18 27.03 27.55 28.52 29.11 29.82 30.23 29.32 28.83 28.77 28.44 28.07 27.42 27.53 27.48 28.36 27.84 27.57 26.64 25.37 25.08 25.60 25.75 25.88 26.90 28.27 28.93 29.63 31.11 30.51 30.29 30.83 31.98 32.12 32.42 33.01 33.74 34.23
27.66 24.37 12.02 17.35 14.43 11.26 22.07 18.47 21.79 25.36 26.38 25.79 24.77 26.62 27.97 29.67 28.97 28.92 28.09 27.46 27.26 26.67 26.61 27.03 26.45 26.03 26.70 26.28 25.98 26.16 25.88 25.53 25.05 25.79 25.99 26.69 25.99 26.66 29.11 30.74 30.44 30.32 30.61 30.44 30.62 30.51 30.85 31.04 32.45
25.97 22.25 15.02 5.74 10.99 12.98 22.51 12.14 21.84 23.75 22.06 19.90 22.24 22.87 29.47 29.86 29.35 28.84 28.17 27.22 25.75 26.85 25.67 25.28 25.42 25.21 25.32 24.13 24.76 25.00 24.69 24.76 26.07 26.99 26.38 27.20 27.17 28.05 29.85 30.01 29.70 29.41 29.93 30.11 30.34 30.22 30.31 30.67 30.71
25.54 20.90 24.98 16.34 7.93 8.14 14.39 21.19 24.68 25.99 23.31 23.71 23.17 28.48 29.40 29.43 28.07 26.55 26.74 27.10 25.93 24.48 24.35 24.18 24.05 24.22 23.66 23.78 22.87 22.72 23.87 25.46 27.32 27.67 27.78 27.38 27.73 28.34 28.90 28.55 28.22 28.81 29.30 29.74 29.87 28.61 27.57 28.41 29.79
26.70 27.68 16.54 12.79 2.91 3.68 13.24 15.23 17.75 19.67 17.54 23.18 21.19 25.43 27.07 27.33 27.05 26.90 26.25 25.21 24.51 23.44 23.30 23.14 22.60 17.75 18.21 21.53 21.52 22.87 21.82 26.74 27.22 26.89 26.34 26.47 26.96 27.72 27.68 27.63 27.88 28.31 28.66 28.27 27.71 27.21 28.33 28.79 29.12
24.77 19.51 21.72 19.69 16.12 6.57 6.16 13.25 19.99 19.01 17.55 18.16 21.86 25.51 24.27 24.13 23.82 24.05 25.15 24.15 20.73 19.51 17.99 17.88 16.73 13.52 16.46 16.68 18.22 20.32 21.29 26.30 25.99 25.80 26.05 25.98 26.87 26.82 27.01 27.67 28.15 27.73 27.57 28.13 27.78 27.61 26.33 27.21 28.41
24.79 19.37 18.77 10.64 8.96 8.31 12.57 13.70 18.46 18.46 16.41 17.43 23.08 25.83 22.79 23.70 23.40 23.24 21.28 16.71 13.45 12.84 10.28 10.91 9.51 8.51 12.54 13.88 17.46 19.33 22.26 25.96 24.98 25.07 25.50 26.56 26.16 27.06 27.07 27.45 27.68 27.93 27.93 26.96 24.78 25.08 26.77 26.93 26.13
MSLP
1014.76 1014.35 1014.84 1014.98 1016.06 1016.29 1015.70 1013.66 1012.09 1011.33 1010.64 1010.68 1010.55 1011.18 1012.42 1013.79 1014.93 1016.32 1016.52 1016.39 1016.78 1017.20 1017.56 1017.55 1017.49 1017.45 1017.50 1017.50 1017.47 1017.48 1017.43 1017.29 1017.25 1017.17 1017.30 1017.33 1017.18 1017.07 1016.81 1016.55 1016.62 1016.42 1015.91 1015.35 1015.39 1015.42 1015.52 1015.66 1015.59
1014.77 1014.45 1014.79 1015.37 1016.21 1016.42 1015.06 1013.01 1012.12 1011.82 1011.11 1010.83 1010.87 1011.59 1012.96 1014.23 1014.89 1016.15 1016.66 1016.56 1016.73 1017.33 1017.77 1017.77 1017.66 1017.62 1017.63 1017.71 1017.77 1017.79 1017.77 1017.67 1017.56 1017.50 1017.51 1017.63 1017.71 1017.45 1017.26 1017.08 1016.99 1016.86 1016.45 1016.09 1015.70 1015.56 1015.57 1015.51 1015.52
1014.86 1014.78 1015.76 1015.93 1016.01 1015.67 1014.33 1012.68 1011.82 1011.60 1011.19 1011.21 1011.70 1012.24 1013.45 1014.59 1015.09 1015.33 1015.81 1016.51 1017.05 1017.54 1017.79 1017.87 1017.82 1017.84 1017.85 1017.93 1018.01 1018.01 1018.05 1018.04 1018.00 1017.99 1017.96 1017.86 1017.70 1017.56 1017.41 1017.51 1017.40 1017.25 1016.97 1016.63 1016.26 1016.03 1015.82 1015.63 1015.54
1015.08 1015.27 1016.01 1015.97 1015.54 1014.08 1013.07 1012.22 1011.71 1011.48 1011.39 1011.38 1011.92 1013.29 1014.14 1014.54 1015.01 1015.29 1015.62 1016.28 1017.20 1017.85 1018.07 1018.04 1018.06 1018.11 1018.12 1018.16 1018.16 1018.21 1018.18 1018.13 1018.07 1018.08 1018.10 1018.01 1017.90 1017.75 1017.63 1017.61 1017.49 1017.48 1017.25 1017.06 1016.75 1016.37 1016.20 1016.03 1015.77
1015.25 1016.01 1016.35 1016.10 1015.13 1013.52 1012.15 1011.78 1011.07 1011.13 1011.49 1011.81 1012.14 1013.47 1014.77 1015.19 1015.14 1015.42 1015.73 1016.18 1017.02 1018.06 1018.30 1018.39 1018.31 1018.31 1018.33 1018.39 1018.43 1018.47 1018.54 1018.58 1018.57 1018.47 1018.37 1018.29 1018.15 1018.00 1018.01 1017.92 1017.78 1017.68 1017.49 1017.35 1017.04 1016.81 1016.49 1016.29 1016.08
1015.93 1016.17 1016.56 1016.07 1014.85 1013.28 1012.25 1011.43 1011.16 1011.13 1011.42 1012.02 1012.77 1013.69 1015.13 1015.50 1015.64 1016.01 1016.25 1016.63 1017.04 1017.83 1018.40 1018.56 1018.54 1018.57 1018.63 1018.68 1018.76 1018.74 1018.77 1018.76 1018.75 1018.65 1018.52 1018.41 1018.27 1018.17 1018.16 1018.08 1017.96 1017.89 1017.55 1017.38 1017.12 1016.99 1016.68 1016.50 1016.14
1015.92 1016.36 1016.03 1015.18 1014.36 1013.18 1012.27 1011.53 1011.70 1011.81 1011.87 1012.21 1012.48 1013.92 1015.65 1016.05 1016.08 1016.18 1016.64 1017.09 1017.34 1017.73 1018.27 1018.74 1018.84 1018.82 1018.90 1018.96 1018.99 1018.98 1018.90 1018.84 1018.79 1018.73 1018.71 1018.69 1018.64 1018.55 1018.44 1018.35 1018.14 1017.93 1017.65 1017.51 1017.23 1016.97 1016.80 1016.54 1016.28
1015.46 1016.00 1015.58 1014.66 1013.92 1013.23 1012.57 1012.05 1011.99 1012.23 1012.40 1012.37 1012.53 1013.76 1015.29 1015.64 1016.01 1016.34 1016.83 1017.23 1017.59 1017.86 1018.21 1018.60 1018.83 1019.00 1019.21 1019.26 1019.20 1019.15 1019.06 1018.98 1018.96 1018.98 1018.97 1018.97 1018.91 1018.78 1018.75 1018.67 1018.33 1017.99 1017.78 1017.64 1017.24 1016.97 1016.67 1016.46 1016.31
1015.09 1015.81 1015.54 1014.44 1013.83 1013.49 1012.94 1012.77 1012.51 1012.55 1012.75 1012.85 1013.08 1013.86 1014.31 1014.95 1015.93 1016.67 1017.30 1017.65 1017.88 1018.07 1018.33 1018.54 1018.81 1018.94 1018.98 1019.13 1019.10 1019.14 1019.09 1019.14 1019.21 1019.24 1019.19 1019.26 1019.27 1019.11 1018.98 1018.77 1018.58 1018.37 1018.09 1017.71 1017.29 1017.07 1016.88 1016.70 1016.40
1015.55 1015.78 1014.82 1014.01 1013.78 1013.91 1013.64 1013.49 1013.19 1013.14 1013.18 1013.32 1013.76 1014.38 1014.54 1015.15 1015.96 1016.62 1017.21 1017.58 1017.93 1018.22 1018.45 1018.54 1018.84 1018.94 1019.00 1018.97 1019.23 1019.27 1019.24 1019.30 1019.40 1019.51 1019.49 1019.39 1019.31 1019.32 1019.17 1019.01 1018.74 1018.54 1018.40 1018.08 1017.64 1017.34 1017.09 1016.81 1016.62
1015.35 1015.16 1014.48 1014.01 1013.88 1013.95 1013.98 1013.92 1013.73 1013.66 1013.22 1013.21 1013.67 1014.71 1015.17 1015.35 1015.81 1016.35 1016.86 1017.28 1017.59 1017.92 1018.22 1018.54 1018.73 1019.01 1019.23 1019.34 1019.47 1019.57 1019.62 1019.64 1019.66 1019.60 1019.55 1019.52 1019.51 1019.46 1019.28 1019.16 1019.00 1018.81 1018.40 1018.26 1017.96 1017.63 1017.28 1017.01 1016.79
1015.32 1014.78 1014.68 1014.37 1014.19 1014.12 1014.25 1014.31 1014.28 1014.09 1013.12 1013.04 1013.46 1013.78 1015.04 1015.59 1015.72 1015.90 1016.32 1016.79 1017.15 1017.66 1018.13 1018.47 1018.65 1019.04 1019.32 1019.59 1019.71 1019.77 1019.87 1019.96 1019.99 1019.91 1019.79 1019.84 1019.88 1019.85 1019.70 1019.50 1019.19 1018.90 1018.58 1018.28 1018.05 1017.85 1017.56 1017.30 1016.96
1015.08 1015.01 1014.72 1014.55 1014.52 1014.51 1014.46 1014.50 1014.69 1013.72 1013.17 1013.04 1013.26 1013.86 1014.47 1014.89 1015.38 1015.70 1015.86 1016.16 1016.66 1017.49 1018.17 1018.45 1018.68 1019.09 1019.34 1019.72 1019.95 1020.01 1020.07 1020.14 1020.11 1020.02 1019.91 1019.91 1019.96 1019.92 1019.74 1019.64 1019.30 1018.95 1018.54 1018.26 1018.08 1017.87 1017.63 1017.35 1016.95
1015.35 1015.35 1015.08 1014.71 1014.37 1014.56 1014.67 1014.67 1014.67 1013.21 1012.86 1012.95 1013.11 1013.56 1013.91 1014.36 1014.56 1015.09 1015.54 1015.93 1016.45 1017.24 1018.10 1018.50 1018.85 1019.21 1019.44 1019.83 1019.94 1020.05 1020.02 1019.97 1019.96 1019.97 1019.86 1019.73 1019.79 1019.87 1019.75 1019.67 1019.43 1019.13 1018.78 1018.43 1018.14 1017.88 1017.63 1017.39 1016.97
1015.54 1015.83 1015.18 1014.46 1014.26 1014.87 1014.84 1014.99 1014.42 1013.08 1013.18 1013.29 1013.29 1013.37 1013.60 1013.96 1014.21 1014.44 1014.63 1015.37 1016.04 1017.11 1017.89 1018.51 1018.94 1019.26 1019.62 1019.88 1019.97 1019.99 1019.94 1019.87 1019.97 1019.89 1019.72 1019.59 1019.54 1019.56 1019.59 1019.56 1019.42 1019.21 1018.89 1018.59 1018.26 1017.90 1017.67 1017.49 1017.11
1016.21 1016.30 1015.89 1014.62 1014.45 1015.13 1015.21 1015.06 1013.96 1013.26 1013.11 1013.43 1013.38 1013.63 1013.67 1013.66 1013.76 1014.04 1014.43 1015.02 1015.98 1016.95 1017.91 1018.38 1018.85 1019.35 1019.76 1019.99 1020.08 1020.04 1020.01 1019.99 1019.89 1019.75 1019.64 1019.48 1019.44 1019.42 1019.48 1019.50 1019.36 1019.08 1018.84 1018.58 1018.33 1017.99 1017.62 1017.32 1017.06
1016.57 1016.57 1015.99 1015.19 1015.03 1015.49 1015.76 1015.20 1014.10 1013.49 1013.52 1013.87 1013.95 1013.96 1013.77 1013.53 1014.04 1014.35 1014.69 1015.49 1016.47 1017.10 1017.92 1018.62 1019.03 1019.46 1019.84 1019.99 1020.09 1020.11 1019.99 1019.97 1019.92 1019.81 1019.62 1019.43 1019.36 1019.29 1019.35 1019.30 1019.18 1018.91 1018.73 1018.54 1018.38 1018.12 1017.79 1017.43 1017.06
1016.62 1016.70 1016.23 1015.97 1015.78 1015.96 1016.13 1015.37 1014.62 1013.93 1013.86 1014.14 1014.52 1014.62 1014.81 1015.12 1015.79 1015.82 1015.80 1016.41 1017.18 1017.75 1018.20 1018.72 1019.30 1019.79 1020.03 1020.22 1020.27 1020.22 1020.05 1020.01 1020.01 1019.86 1019.64 1019.46 1019.34 1019.24 1019.29 1019.28 1019.19 1019.02 1018.98 1018.82 1018.64 1018.33 1017.83 1017.31 1017.01
1016.56 1016.78 1016.93 1016.39 1016.35 1016.40 1016.24 1015.98 1015.02 1014.24 1014.37 1014.85 1015.39 1016.04 1016.29 1016.61 1017.17 1017.12 1017.21 1017.51 1017.88 1018.41 1018.75 1019.12 1019.57 1019.98 1020.20 1020.49 1020.62 1020.54 1020.56 1020.39 1020.18 1019.84 1019.55 1019.47 1019.36 1019.26 1019.35 1019.41 1019.35 1019.26 1019.24 1019.15 1018.88 1018.50 1018.02 1017.37 1017.07
1016.72 1017.16 1017.30 1016.90 1016.88 1017.29 1017.01 1016.28 1015.11 1014.94 1015.67 1016.00 1016.57 1017.10 1017.43 1017.78 1017.82 1017.95 1018.02 1018.24 1018.48 1018.87 1019.17 1019.32 1019.64 1020.13 1020.36 1020.48 1020.68 1020.69 1020.61 1020.36 1020.08 1019.80 1019.74 1019.56 1019.49 1019.41 1019.24 1019.40 1019.49 1019.40 1019.32 1019.22 1018.93 1018.56 1018.15 1017.61 1017.25
1017.15 1017.61 1017.88 1018.33 1018.17 1017.95 1018.01 1017.02 1016.35 1016.41 1016.38 1016.67 1017.17 1017.73 1018.20 1018.43 1018.57 1018.61 1018.65 1018.91 1019.11 1019.30 1019.49 1019.65 1019.89 1020.13 1020.40 1020.55 1020.68 1020.69 1020.45 1020.27 1020.19 1020.06 1019.89 1019.66 1019.52 1019.39 1019.36 1019.45 1019.50 1019.49 1019.38 1019.22 1019.02 1018.80 1018.40 1017.79 1017.52
1018.02 1018.14 1018.58 1019.02 1019.57 1020.04 1019.55 1019.48 1017.60 1017.36 1017.56 1017.70 1017.87 1018.15 1018.43 1018.65 1018.75 1018.87 1018.98 1019.15 1019.28 1019.66 1019.72 1019.78 1019.98 1020.19 1020.39 1020.51 1020.67 1020.87 1020.88 1020.80 1020.58 1020.40 1020.14 1019.87 1019.73 1019.61 1019.58 1019.50 1019.45 1019.39 1019.22 1019.18 1019.13 1018.90 1018.83 1018.45 1017.82
1018.46 1018.77 1019.29 1019.77 1020.80 1021.31 1020.74 1021.37 1018.27 1018.09 1018.45 1018.24 1018.30 1018.48 1018.53 1018.45 1018.51 1018.59 1018.76 1019.03 1019.34 1019.60 1019.77 1019.93 1020.08 1020.21 1020.32 1020.43 1020.64 1020.79 1021.00 1020.83 1020.54 1020.47 1020.35 1020.21 1019.88 1019.67 1019.63 1019.56 1019.43 1019.34 1019.23 1019.21 1019.15 1019.20 1018.95 1018.61 1018.16
1018.98 1019.52 1020.14 1020.65 1021.36 1021.95 1021.28 1021.22 1019.17 1019.00 1019.02 1018.76 1018.82 1018.83 1018.81 1018.69 1018.55 1018.48 1018.68 1018.98 1019.29 1019.55 1019.78 1019.92 1020.06 1020.21 1020.25 1020.50 1020.66 1020.78 1020.98 1020.80 1020.67 1020.70 1020.58 1020.23 1019.86 1019.83 1019.71 1019.52 1019.53 1019.66 1019.53 1019.34 1019.21 1019.20 1018.90 1018.46 1018.01
1019.58 1020.41 1021.96 1022.27 1022.62 1022.32 1021.52 1021.32 1019.23 1019.09 1019.08 1019.24 1019.54 1019.31 1018.95 1018.73 1018.62 1018.64 1018.83 1019.14 1019.39 1019.67 1019.84 1019.99 1020.16 1020.26 1020.35 1020.58 1020.69 1020.80 1020.90 1020.69 1020.79 1020.71 1020.42 1020.05 1019.93 1019.95 1019.83 1019.63 1019.65 1019.56 1019.38 1019.26 1019.12 1018.94 1018.76 1018.50 1018.06
1020.04 1020.75 1021.75 1022.93 1023.65 1023.25 1022.05 1020.92 1019.20 1019.23 1019.57 1019.89 1020.03 1019.69 1019.24 1018.98 1018.92 1018.90 1019.02 1019.23 1019.50 1019.65 1019.98 1020.16 1020.34 1020.45 1020.55 1020.74 1020.82 1020.93 1020.75 1020.65 1020.56 1020.40 1020.28 1020.04 1020.09 1020.09 1019.94 1019.83 1019.70 1019.49 1019.24 1019.05 1018.87 1018.69 1018.43 1018.17 1017.83
1020.64 1021.30 1021.88 1023.11 1024.69 1024.22 1022.11 1020.71 1020.00 1019.98 1020.45 1020.48 1020.46 1020.12 1019.77 1019.45 1019.18 1019.17 1019.25 1019.47 1019.71 1019.99 1020.25 1020.47 1020.63 1020.76 1020.81 1020.99 1021.07 1020.91 1020.74 1020.48 1020.47 1020.25 1020.12 1020.18 1020.16 1019.98 1019.73 1019.62 1019.41 1019.10 1018.94 1018.78 1018.57 1018.38 1018.14 1017.82 1017.43
1020.85 1021.49 1022.49 1023.95 1024.92 1024.45 1022.51 1021.78 1020.66 1021.14 1021.57 1021.36 1021.09 1020.62 1020.36 1020.02 1019.67 1019.53 1019.64 1019.87 1020.02 1020.30 1020.65 1020.89 1021.05 1021.17 1021.20 1021.21 1021.10 1020.85 1020.63 1020.55 1020.24 1020.11 1020.10 1020.02 1019.89 1019.70 1019.49 1019.27 1019.04 1018.82 1018.58 1018.37 1018.15 1017.95 1017.60 1017.17 1016.83
1021.71 1021.84 1022.67 1023.63 1024.14 1024.37 1024.18 1021.79 1021.05 1021.54 1021.90 1021.84 1021.37 1021.04 1020.79 1020.57 1020.24 1020.17 1020.12 1020.27 1020.46 1020.73 1021.10 1021.30 1021.42 1021.53 1021.51 1021.22 1020.96 1020.92 1020.77 1020.26 1020.07 1020.01 1019.88 1019.70 1019.53 1019.41 1019.22 1018.97 1018.69 1018.43 1018.14 1017.89 1017.64 1017.31 1016.94 1016.61 1016.11
1021.45 1021.78 1022.59 1023.63 1024.26 1024.41 1024.60 1022.45 1021.39 1021.82 1021.94 1021.72 1021.45 1021.14 1021.00 1020.85 1020.77 1020.81 1020.58 1020.67 1021.06 1021.42 1021.36 1021.49 1021.64 1021.71 1021.44 1021.06 1021.07 1020.78 1020.44 1020.12 1019.93 1019.75 1019.57 1019.39 1019.23 1019.04 1018.80 1018.53 1018.30 1018.02 1017.77 1017.39 1017.15 1016.81 1016.43 1016.13 1015.81
Wind_Speed
9 9 1 4 5 5 4 8 5 5 4 1 2 7 6 5 2 3 4 13 13 11 6 5 12 13 14 14 15 15 15 15 15 15 14 14 14 14 14 15 15 16 16 12 8 7 6 5 5
4 6 4 2 5 3 6 6 6 3 1 3 5 3 4 3 5 7 5 9 13 12 7 5 11 13 13 14 14 14 14 14 14 14 14 13 11 13 13 14 13 14 15 16 12 7 7 6 5
5 3 4 4 4 6 5 1 8 2 5 3 3 5 4 5 2 11 7 10 13 10 7 5 11 12 13 13 13 13 13 13 13 12 12 12 13 13 13 12 12 13 13 14 15 15 13 7 6
2 5 5 4 7 8 4 2 6 6 3 4 2 4 3 3 11 7 10 14 13 9 7 8 11 11 12 12 12 12 13 13 13 13 13 13 13 13 13 13 13 12 13 13 13 13 15 14 12
4 3 1 2 6 8 7 5 4 3 3 3 4 3 3 3 7 11 10 13 14 8 7 5 10 11 12 12 11 12 12 12 12 12 13 13 12 12 12 12 11 12 12 12 12 13 13 13 13
4 3 2 4 7 6 5 1 2 3 1 1 2 7 5 6 9 7 8 9 11 10 7 6 8 10 11 11 11 11 11 11 11 12 13 13 12 13 13 13 13 13 13 13 12 12 12 12 12
4 3 5 4 6 8 2 4 4 4 3 3 2 6 2 5 6 7 8 8 9 9 8 6 5 6 10 11 10 10 10 10 11 12 13 13 13 13 13 13 14 14 14 14 14 14 13 12 12
4 3 3 4 3 5 3 2 3 3 2 3 1 5 5 7 9 8 7 8 8 7 7 6 5 5 5 4 9 9 9 10 11 12 13 12 12 12 11 12 13 15 14 15 15 14 14 14 14
3 3 3 4 2 2 4 3 2 3 2 2 2 5 3 11 10 7 5 5 5 5 6 6 5 4 3 5 5 6 8 10 9 9 12 7 4 6 7 10 13 13 15 16 15 15 16 16 13
4 4 7 1 1 1 5 5 6 2 5 3 2 3 8 12 9 9 7 7 7 6 5 6 6 4 3 3 4 4 5 4 5 5 6 4 5 5 7 7 11 12 13 13 15 17 15 9 5
5 6 2 1 4 1 2 7 5 1 8 8 4 8 9 7 9 10 8 7 8 8 5 7 6 5 5 4 3 3 3 3 4 6 5 5 5 4 4 3 4 4 7 3 6 6 5 8 6
3 6 3 6 2 2 1 4 6 4 9 4 1 6 10 8 12 12 10 9 8 8 8 7 7 6 4 3 3 3 3 3 3 4 5 4 3 4 4 3 5 4 3 5 4 3 5 7 8
3 3 6 6 7 5 2 7 6 14 10 9 7 7 14 11 9 7 9 9 8 8 7 7 7 6 4 5 3 2 2 2 2 3 3 3 3 3 4 4 4 4 4 4 4 4 5 6 7
1 4 8 8 9 5 5 5 1 11 8 7 6 8 10 12 14 9 9 9 8 10 8 7 7 6 5 3 3 2 2 2 3 2 3 4 2 2 2 4 4 4 4 5 4 4 4 5 6
3 5 8 7 5 5 3 7 8 15 7 9 9 8 8 10 9 11 12 8 11 10 10 8 8 7 6 4 3 3 3 3 3 3 4 4 3 3 4 3 3 4 4 6 5 5 4 5 6
1 2 4 3 5 1 3 8 5 3 3 4 4 8 8 8 11 8 8 8 9 13 11 7 7 7 5 4 3 2 3 3 3 3 2 3 4 4 4 3 3 4 4 4 4 4 3 4 5
2 3 5 3 1 3 4 6 8 5 3 9 9 9 9 8 4 6 8 10 10 12 11 8 7 6 4 2 2 3 4 3 3 3 3 4 4 4 4 4 4 5 4 3 4 4 4 3 4
4 4 3 3 2 3 6 12 11 14 8 8 9 8 7 10 9 7 12 11 10 8 8 8 6 6 3 2 2 3 3 3 3 4 3 4 4 5 4 4 5 4 4 5 6 6 6 4 6
3 3 4 5 2 5 6 10 14 14 7 6 8 7 9 10 5 8 10 9 9 8 8 6 6 4 2 2 1 2 2 3 3 3 5 5 4 4 4 3 4 4 4 5 6 5 7 4 4
2 1 5 6 3 3 6 16 17 7 6 6 7 7 7 6 7 7 7 7 6 6 6 6 5 4 2 2 1 1 1 3 4 3 4 3 5 4 4 4 4 4 3 5 7 8 5 4 5
2 4 2 3 7 2 7 8 6 5 6 7 7 6 5 6 5 3 3 3 4 4 4 6 5 4 2 2 1 2 2 2 3 3 3 4 5 5 4 4 3 4 4 5 6 7 9 5 4
2 1 1 2 5 2 5 7 5 4 6 6 5 6 5 5 3 4 5 5 4 3 4 4 4 2 1 2 2 2 1 2 1 2 3 4 5 5 4 4 4 4 3 5 6 7 7 7 6
4 2 2 2 3 5 3 4 8 3 2 2 4 4 4 1 1 2 5 4 3 4 3 2 2 1 0 1 1 1 2 2 2 3 5 4 4 4 5 4 4 4 4 5 6 7 8 7 7
2 2 3 2 2 2 5 5 5 2 5 1 2 2 5 6 6 5 4 4 3 3 3 3 2 0 1 1 2 3 3 4 3 4 3 3 2 3 4 5 4 4 5 6 5 7 9 7 7
5 4 3 3 1 7 4 1 7 4 3 3 3 7 7 6 3 2 3 4 5 5 4 3 2 1 1 1 2 3 4 3 4 4 4 4 3 3 5 6 6 5 6 8 8 8 9 10 8
3 6 6 7 3 5 2 6 7 5 5 4 5 6 5 6 5 4 4 2 2 3 3 1 1 1 2 2 3 3 4 2 3 3 3 3 4 5 6 5 6 8 8 7 7 6 6 8 7
3 2 3 5 3 3 4 4 4 2 5 6 6 6 7 7 7 6 5 3 4 3 1 0 1 1 2 3 3 4 4 3 3 4 3 3 5 5 5 6 7 7 7 7 6 7 11 10 9
2 3 5 3 1 4 6 4 7 4 4 5 7 8 8 7 8 6 4 4 3 2 1 1 2 1 1 3 3 3 4 5 4 3 4 5 5 5 6 6 7 7 6 6 6 6 8 9 8
2 1 1 3 4 6 2 8 4 8 6 6 7 6 7 7 7 7 5 2 2 1 1 2 3 3 4 3 3 3 5 4 4 4 5 5 5 5 6 6 6 7 7 6 6 8 8 10 10
3 6 5 6 6 2 3 9 5 7 5 5 6 4 5 4 6 6 5 3 3 4 3 4 4 4 5 3 4 4 4 4 4 4 4 5 5 4 6 6 6 6 7 7 6 8 8 8 9
Wind_Direction
322 300 129 29 65 72 257 260 241 310 51 29 58 83 140 98 94 194 250 114 118 109 84 75 89 81 74 70 68 64 59 58 55 54 50 39 33 30 28 27 16 11 8 359 281 264 261 244 240
323 316 33 70 93 96 266 267 94 345 98 90 60 50 87 143 130 129 112 143 121 111 93 77 93 83 77 70 66 62 59 56 52 48 44 38 37 33 26 25 20 9 8 9 8 323 287 270 246
314 191 85 126 151 187 220 48 157 128 48 41 71 63 106 162 125 152 154 122 107 102 94 89 96 87 80 74 68 61 57 54 54 48 41 34 28 28 22 20 17 13 7 2 4 11 12 333 314
14 9 5 108 230 259 227 314 156 141 57 68 101 78 47 281 155 156 136 113 104 100 87 104 103 94 85 76 71 63 56 49 43 39 34 29 26 24 20 16 11 17 6 360 359 358 1 359 2
32 66 62 226 252 260 266 201 154 122 132 204 155 161 112 17 126 128 131 120 118 115 106 90 104 96 85 78 71 65 60 54 47 42 32 26 25 25 16 12 10 8 359 355 354 353 350 343 345
11 100 66 230 249 285 278 0 118 128 125 96 130 114 188 139 128 154 126 123 123 128 130 112 103 97 86 75 71 65 60 57 52 44 33 27 27 22 19 11 7 354 352 347 347 343 346 339 337
130 98 215 251 259 303 214 310 63 359 359 328 198 120 167 166 166 150 134 121 122 126 130 142 135 115 99 82 74 66 62 56 52 47 35 33 27 18 13 6 357 353 349 345 342 337 330 328 328
118 111 271 251 247 267 308 35 134 81 287 272 356 174 206 208 169 146 126 121 128 129 134 138 117 103 122 95 94 76 63 54 48 44 35 27 17 12 6 3 355 352 351 345 341 335 330 328 321
43 59 229 256 1 323 327 36 16 171 321 355 36 120 214 133 137 133 131 124 127 137 141 131 119 103 111 133 82 68 64 51 43 39 25 23 8 357 3 356 354 357 349 343 345 350 343 335 322
110 149 222 262 49 17 335 20 330 7 309 281 83 7 130 138 149 158 171 172 165 164 158 137 124 116 72 83 61 56 57 44 43 35 17 11 11 2 359 353 347 351 340 346 342 340 340 342 335
195 207 234 176 141 107 344 327 328 74 282 218 211 177 180 160 166 172 190 186 182 178 162 145 130 108 89 74 67 42 50 35 30 18 16 15 11 355 350 346 344 332 332 336 331 333 338 337 336
243 251 287 304 44 84 327 327 330 233 236 218 148 177 172 177 186 187 190 195 184 168 157 148 133 119 98 89 74 69 55 46 22 7 8 23 4 357 346 340 331 334 324 323 330 337 337 333 325
209 276 295 312 306 276 213 247 237 265 269 275 293 161 183 183 192 201 192 199 181 153 150 147 125 118 104 93 80 69 64 71 17 4 359 16 1 350 342 341 333 328 328 329 334 335 324 314 308
152 305 284 280 268 240 240 266 137 268 259 259 260 210 191 190 195 192 196 196 170 139 144 139 116 113 104 100 90 55 31 21 10 353 338 352 3 1 355 337 329 329 336 334 333 328 310 307 310
353 328 308 260 240 196 99 298 232 256 277 285 290 251 214 213 200 196 193 170 153 143 138 129 120 102 84 66 44 25 357 13 352 326 335 347 357 353 351 335 335 322 324 327 329 322 340 345 335
278 157 317 303 111 228 135 264 268 269 129 300 280 249 259 237 209 197 175 142 128 127 131 128 115 106 84 64 31 353 331 325 310 307 322 348 4 16 359 335 321 308 310 311 321 309 324 325 323
266 230 212 286 227 123 180 252 259 269 322 276 274 269 252 245 141 110 108 114 117 122 119 111 110 111 98 42 338 308 304 309 319 337 338 351 16 2 348 336 327 325 317 326 325 325 292 285 305
182 225 306 273 4 203 250 258 271 279 264 261 290 318 23 61 45 53 84 94 101 105 107 110 107 115 104 28 341 321 333 4 349 342 352 352 344 340 356 343 335 342 1 359 348 338 323 323 323
141 172 237 272 338 338 254 285 283 281 294 335 65 57 66 56 37 51 68 81 93 91 105 116 120 122 95 31 359 6 321 318 311 313 307 317 307 320 5 343 341 338 358 345 323 315 322 333 323
97 303 275 281 68 359 297 293 293 347 71 85 77 66 65 67 43 47 63 72 77 115 122 126 120 112 102 101 300 260 277 279 274 299 317 356 29 10 335 338 329 336 335 325 322 323 310 309 330
205 204 263 240 335 309 325 311 349 44 81 78 64 86 73 116 115 81 76 94 109 132 144 113 113 98 64 45 19 327 325 339 358 355 342 352 351 340 348 358 3 349 332 314 310 310 308 311 330
194 122 97 22 51 257 56 282 334 59 68 69 69 69 73 62 110 167 171 168 148 117 113 119 121 103 0 61 44 357 305 300 315 314 320 340 350 350 19 13 6 334 317 312 321 311 327 314 301
194 115 134 97 70 49 318 79 271 183 59 45 84 75 51 37 250 201 151 144 119 136 134 116 156 159 149 75 20 330 301 297 313 334 336 325 319 13 14 354 342 318 322 311 304 298 294 286 290
120 71 72 71 80 321 242 145 267 249 205 112 121 346 321 305 283 254 208 188 217 197 191 213 164 175 54 52 3 349 319 321 340 317 309 296 324 356 350 347 351 329 329 318 317 311 296 283 279
69 70 360 338 358 221 257 111 249 231 222 186 278 309 311 304 300 282 225 230 251 232 230 190 170 267 330 6 345 329 306 321 298 298 303 339 11 3 338 332 330 323 306 306 307 301 299 298 291
155 141 156 210 236 257 326 241 262 218 254 258 252 272 310 332 314 292 260 222 243 201 165 132 126 281 24 7 343 330 319 276 278 294 339 340 333 321 309 314 319 305 301 298 289 281 282 283 281
185 156 145 95 31 45 231 283 348 135 345 348 332 328 319 314 311 302 272 238 235 220 215 103 322 328 28 355 327 314 292 313 305 323 325 304 295 289 298 296 288 285 286 283 290 297 294 288 276
117 163 65 5 172 268 289 264 230 199 283 312 326 330 320 317 328 311 304 259 224 185 118 30 36 237 280 298 291 301 312 286 284 287 278 273 268 273 285 284 280 282 280 283 276 276 275 281 280
148 57 136 122 165 163 261 265 219 169 209 246 289 307 305 312 322 311 300 288 169 148 234 267 281 273 274 282 296 293 276 289 284 276 268 267 273 277 284 283 280 280 280 276 270 270 279 279 282
182 191 149 137 247 209 152 271 202 179 204 220 275 300 290 305 331 317 296 276 258 259 260 246 253 244 248 262 250 259 288 272 283 265 276 270 275 274 275 279 279 282 284 282 274 278 280 286 290